DW5467 Weather Reports


time (UTC)temp
C
wind
direction
speed
KPH
gust
KPH
rain 1hr
cm
rain 24hr
cm
rain mn
cm
humidity
%
barometer
mb
20260502164027 22 71 4.8 4.8 0.00 0.25 0.00 53 1022.4
20260502163527 22 16 3.2 8.0 0.00 0.25 0.00 52 1022.3
20260502163028 22 40 3.2 4.8 0.00 0.28 0.00 58 1022.4
20260502162527 22 12 3.2 4.8 0.00 0.28 0.00 59 1022.4
20260502161527 21 49 1.6 4.8 0.00 0.30 0.00 58 1022.4
20260502160527 20 108 3.2 4.8 0.00 0.33 0.00 58 1022.4
20260502152027 17 61 1.6 4.8 0.00 0.41 0.00 67 1022.0
20260502151527 17 54 3.2 4.8 0.00 0.41 0.00 68 1022.0
20260502151027 17 7 4.8 8.0 0.00 0.41 0.00 72 1022.0
20260502150527 17 65 3.2 4.8 0.00 0.43 0.00 72 1021.9
20260502130527 11 41 0.0 1.6 0.00 0.69 0.00 89 1021.5
20260502123527 11 41 0.0 0.0 0.00 0.76 0.00 88 1020.6
20260502123027 11 41 0.0 0.0 0.00 0.76 0.00 88 1020.6
20260502122527 11 41 0.0 0.0 0.00 0.79 0.00 88 1020.4
20260502122026 11 41 0.0 0.0 0.00 0.81 0.00 88 1020.3
20260502121527 11 41 0.0 0.0 0.00 0.81 0.00 88 1020.2
20260502121027 11 41 0.0 0.0 0.00 0.84 0.00 88 1020.2
20260502120528 11 41 0.0 0.0 0.00 0.84 0.00 88 1020.1
20260502115527 11 41 0.0 0.0 0.00 0.86 0.00 88 1019.9
20260502115027 11 41 0.0 0.0 0.00 0.89 0.00 88 1019.8
20260502114527 11 41 0.0 0.0 0.00 0.89 0.00 88 1019.8
20260502114027 11 41 0.0 0.0 0.00 0.91 0.00 88 1019.7
20260502113027 11 41 0.0 0.0 0.00 0.91 0.00 88 1019.6
20260502112526 11 41 0.0 0.0 0.00 0.91 0.00 88 1019.5
20260502112026 11 41 0.0 0.0 0.00 0.91 0.00 88 1019.4
20260502111527 11 41 0.0 0.0 0.00 0.91 0.00 88 1019.4
20260502111027 11 41 0.0 0.0 0.00 0.91 0.00 88 1019.4
20260502110026 11 41 0.0 0.0 0.00 0.91 0.00 88 1019.2
20260502105526 11 41 0.0 0.0 0.00 0.91 0.00 88 1019.1
20260502105026 11 41 0.0 0.0 0.00 0.91 0.00 88 1019.1
20260502104027 11 41 0.0 0.0 0.00 0.91 0.00 88 1019.0
20260502103527 11 41 0.0 0.0 0.00 0.91 0.00 88 1018.9
20260502103026 11 41 0.0 0.0 0.00 0.91 0.00 88 1018.8
20260502102526 11 41 0.0 0.0 0.00 0.91 0.00 88 1018.8
20260502101527 11 41 0.0 0.0 0.00 0.91 0.00 88 1018.6
20260502101026 12 41 0.0 0.0 0.00 0.91 0.00 88 1018.6
20260502091527 12 41 0.0 0.0 0.00 0.91 0.00 89 1018.5
20260502091027 12 41 0.0 0.0 0.00 0.91 0.00 88 1018.5
20260502090527 12 41 0.0 0.0 0.00 0.91 0.00 88 1018.5
20260502071527 12 41 0.0 0.0 0.00 0.91 0.00 88 1018.5
20260502071027 12 41 0.0 0.0 0.00 0.91 0.00 88 1018.6
20260502070527 12 41 0.0 0.0 0.00 0.91 0.00 88 1018.6
20260502065526 12 41 0.0 0.0 0.00 0.91 0.00 88 1018.6
20260502065026 12 41 0.0 0.0 0.00 0.91 0.00 88 1018.6
20260502064526 12 41 0.0 0.0 0.00 0.91 0.00 88 1018.6
20260502064027 12 41 0.0 0.0 0.00 0.91 0.00 88 1018.6
20260502063527 12 41 0.0 0.0 0.00 0.91 0.00 88 1018.6
20260502063027 12 41 0.0 0.0 0.00 0.91 0.00 88 1018.7
20260502062527 12 41 0.0 0.0 0.00 0.91 0.00 88 1018.7
20260502062027 12 41 0.0 0.0 0.00 0.91 0.00 88 1018.8
20260502061526 12 41 0.0 0.0 0.00 0.91 0.00 88 1018.9
20260502061026 12 41 0.0 0.0 0.00 0.91 0.00 88 1018.9
20260502060527 12 41 0.0 0.0 0.00 0.91 0.00 88 1018.9
20260502060027 12 41 0.0 0.0 0.00 0.91 0.00 88 1018.9
20260502055526 12 41 0.0 0.0 0.00 0.91 0.00 88 1018.9
20260502055027 12 41 0.0 0.0 0.00 0.91 0.00 88 1018.9
20260502054527 12 41 0.0 0.0 0.00 0.91 0.00 88 1018.9
20260502054027 12 41 0.0 0.0 0.00 0.91 0.00 88 1018.9
20260502053527 12 41 0.0 0.0 0.00 0.91 0.00 88 1018.9
20260502053026 12 41 0.0 0.0 0.00 0.91 0.00 88 1018.7
20260502052526 12 41 0.0 0.0 0.00 0.91 0.00 88 1018.7
20260502052026 12 41 0.0 0.0 0.00 0.91 0.00 88 1018.6
20260502051526 12 41 0.0 0.0 0.00 0.91 0.00 88 1018.7
20260502051027 12 41 0.0 0.0 0.00 0.91 0.00 88 1018.7
20260502050527 12 41 0.0 0.0 0.00 0.91 0.00 88 1018.6
20260502045526 12 41 0.0 0.0 0.00 0.91 0.91 88 1018.5
20260502045027 12 41 0.0 0.0 0.00 0.91 0.91 88 1018.4
20260502044526 12 41 0.0 0.0 0.00 0.91 0.91 88 1018.4
20260502044026 12 41 0.0 0.0 0.00 0.91 0.91 88 1018.3
20260502043526 12 41 0.0 0.0 0.00 0.91 0.91 88 1018.2
20260502043027 12 41 0.0 0.0 0.00 0.91 0.91 88 1018.2
20260502042527 12 41 0.0 0.0 0.00 0.91 0.91 88 1018.2
20260502042026 13 41 0.0 0.0 0.00 0.91 0.91 88 1018.3
20260502041527 12 41 0.0 0.0 0.00 0.91 0.91 88 1018.3
20260502041027 13 41 0.0 0.0 0.00 0.91 0.91 88 1018.2
20260502040527 13 41 0.0 0.0 0.00 0.91 0.91 88 1018.1
20260502040026 13 41 0.0 0.0 0.00 0.91 0.91 88 1018.1
20260502035527 13 41 0.0 0.0 0.00 0.91 0.91 88 1018.2
20260502035027 13 41 0.0 0.0 0.00 0.91 0.91 88 1018.1
20260502034026 13 41 0.0 0.0 0.00 0.91 0.91 88 1018.0
20260502033027 13 41 0.0 0.0 0.00 0.91 0.91 88 1017.7
20260502032527 13 41 0.0 0.0 0.00 0.91 0.91 87 1017.8
20260502032027 13 41 0.0 0.0 0.00 0.91 0.91 87 1017.9
20260502031527 13 41 0.0 0.0 0.00 0.91 0.91 87 1017.9
20260502030526 13 41 0.0 0.0 0.00 0.91 0.91 87 1017.8
20260502025026 13 41 0.0 0.0 0.00 0.91 0.91 87 1017.4
20260502024527 13 41 0.0 0.0 0.00 0.91 0.91 87 1017.7
20260502024026 13 41 0.0 0.0 0.00 0.91 0.91 87 1018.2
20260502023527 13 41 0.0 0.0 0.00 0.91 0.91 87 1018.7
20260502023027 13 41 0.0 0.0 0.00 0.91 0.91 87 1018.5
20260502022527 13 41 0.0 0.0 0.00 0.91 0.91 87 1018.1
20260502022027 13 41 0.0 0.0 0.00 0.91 0.91 87 1017.6
20260502021527 13 41 0.0 0.0 0.00 0.91 0.91 87 1017.4
20260502021027 13 41 0.0 0.0 0.00 0.91 0.91 87 1017.8
20260502020526 13 41 0.0 0.0 0.00 0.91 0.91 86 1017.7
20260502020026 13 41 0.0 0.0 0.00 0.91 0.91 86 1017.7
20260502015526 13 41 0.0 0.0 0.00 0.91 0.91 86 1017.6
20260502015027 13 41 0.0 0.0 0.00 0.91 0.91 86 1017.3
20260502014527 13 41 0.0 0.0 0.00 0.91 0.91 86 1017.0
20260502014026 13 41 0.0 0.0 0.00 0.91 0.91 86 1016.9
20260502013526 13 41 0.0 0.0 0.00 0.91 0.91 86 1016.7
20260502013027 13 41 0.0 0.0 0.00 0.91 0.91 86 1016.7
20260502012527 13 41 0.0 0.0 0.00 0.91 0.91 86 1017.0
20260502012026 13 41 0.0 0.0 0.03 0.91 0.91 86 1017.1
20260502011527 13 41 0.0 0.0 0.03 0.91 0.91 86 1017.0
20260502011027 13 41 0.0 0.0 0.03 0.91 0.91 86 1016.9
20260502010526 13 41 0.0 0.0 0.03 0.91 0.91 85 1016.8
20260502010026 13 41 0.0 0.0 0.03 0.91 0.91 85 1016.8
20260502005527 13 41 0.0 0.0 0.03 0.91 0.91 85 1016.9
20260502005026 13 41 0.0 0.0 0.03 0.91 0.91 85 1017.0
20260502004526 13 41 0.0 0.0 0.03 0.91 0.91 85 1017.0
20260502004027 13 41 0.0 0.0 0.03 0.91 0.91 85 1017.1
20260502003026 13 41 0.0 0.0 0.03 0.91 0.91 85 1016.9
20260502002527 13 41 0.0 0.0 0.03 0.91 0.91 85 1016.8
20260502002026 13 41 0.0 0.0 0.00 0.89 0.89 85 1016.7
20260502001527 13 41 0.0 0.0 0.00 0.89 0.89 84 1016.7
20260502001026 14 41 0.0 0.0 0.00 0.89 0.89 84 1016.7
20260502000527 14 41 0.0 0.0 0.00 0.89 0.89 84 1016.9
20260502000026 14 41 0.0 0.0 0.00 0.89 0.89 84 1016.8
20260501235527 14 41 0.0 0.0 0.00 0.89 0.89 84 1016.6
20260501235026 14 41 0.0 0.0 0.00 0.89 0.89 84 1016.3
20260501234526 14 41 0.0 0.0 0.00 0.89 0.89 84 1016.3
20260501233526 14 41 0.0 0.0 0.00 0.89 0.89 83 1016.4
20260501233026 14 41 0.0 3.2 0.00 0.89 0.89 83 1016.3
20260501232526 14 41 1.6 3.2 0.00 0.89 0.89 83 1016.3
20260501232026 14 41 0.0 3.2 0.00 0.89 0.89 83 1016.6
20260501231527 14 41 0.0 0.0 0.00 0.89 0.89 83 1016.7
20260501231026 15 41 0.0 0.0 0.00 0.89 0.89 83 1016.8
20260501230526 15 41 0.0 0.0 0.00 0.89 0.89 83 1016.7
20260501230027 15 41 0.0 0.0 0.00 0.89 0.89 83 1016.6
20260501225526 15 41 0.0 0.0 0.00 0.89 0.89 83 1016.6
20260501225026 15 41 0.0 0.0 0.00 0.89 0.89 83 1016.4
20260501224526 15 41 0.0 0.0 0.00 0.89 0.89 83 1016.3
20260501224027 15 41 0.0 0.0 0.00 0.89 0.89 83 1016.1
20260501223527 15 41 0.0 1.6 0.00 0.89 0.89 83 1015.9
20260501223026 15 41 1.6 3.2 0.00 0.89 0.89 84 1015.7
20260501222526 15 41 3.2 4.8 0.00 0.89 0.89 84 1015.5
20260501222027 15 49 1.6 4.8 0.00 0.89 0.89 85 1015.3
20260501221526 14 57 0.0 3.2 0.00 0.89 0.89 86 1015.2
20260501221026 14 57 1.6 3.2 0.00 0.89 0.89 85 1015.3
20260501220527 14 57 0.0 0.0 0.00 0.89 0.89 85 1015.3
20260501220027 14 57 0.0 0.0 0.00 0.89 0.89 85 1015.2
20260501215026 14 57 0.0 0.0 0.00 0.89 0.89 85 1015.6
20260501214526 14 57 0.0 0.0 0.00 0.89 0.89 85 1015.7
20260501214027 14 57 0.0 1.6 0.00 0.89 0.89 85 1015.8
20260501213526 14 57 0.0 1.6 0.00 0.89 0.89 85 1015.8
20260501213027 13 57 0.0 1.6 0.00 0.91 0.89 85 1015.8
20260501212526 13 57 0.0 3.2 0.00 0.91 0.89 85 1015.8
20260501212026 13 57 0.0 1.6 0.00 0.91 0.89 85 1015.9
20260501211526 13 57 1.6 4.8 0.00 0.91 0.89 85 1015.7
20260501211026 13 57 3.2 4.8 0.00 0.91 0.89 85 1015.6
20260501210026 13 61 3.2 8.0 0.00 0.91 0.89 86 1015.5
20260501205526 13 23 4.8 11.3 0.00 0.94 0.89 86 1015.3
20260501205027 13 29 4.8 8.0 0.00 0.94 0.89 87 1015.0
20260501204526 13 58 3.2 11.3 0.00 0.94 0.89 88 1014.9
20260501204026 13 40 3.2 4.8 0.03 0.97 0.89 88 1014.8
20260501203526 13 49 3.2 8.0 0.03 0.97 0.89 88 1014.6
20260501203027 13 71 1.6 4.8 0.03 0.97 0.89 88 1014.6
20260501202527 13 73 3.2 4.8 0.03 0.97 0.89 89 1014.4
20260501202027 13 38 6.4 14.5 0.03 0.97 0.89 89 1014.5
20260501201526 13 77 3.2 9.7 0.03 0.97 0.89 89 1014.4
20260501201027 13 92 1.6 8.0 0.03 0.97 0.89 89 1014.4
20260501200526 13 21 4.8 16.1 0.03 0.97 0.89 89 1014.4
20260501200026 13 68 4.8 12.9 0.05 0.97 0.89 89 1014.4
20260501195026 12 39 3.2 4.8 0.05 0.99 0.89 89 1014.7
20260501194526 12 42 4.8 16.1 0.05 0.99 0.89 89 1014.6
20260501194026 13 55 3.2 8.0 0.05 0.97 0.86 89 1014.6
20260501193527 12 62 3.2 4.8 0.05 0.97 0.86 89 1014.6
20260501193026 13 60 3.2 4.8 0.05 0.97 0.86 89 1015.4
20260501192526 13 33 3.2 4.8 0.05 0.97 0.86 89 1015.7
20260501192027 13 54 3.2 12.9 0.05 0.97 0.86 89 1015.9
20260501191527 13 27 1.6 4.8 0.08 0.97 0.86 89 1016.0
20260501191027 13 15 4.8 8.0 0.08 0.97 0.86 89 1016.2
20260501190026 12 34 1.6 4.8 0.08 0.94 0.84 89 1016.4
20260501185526 12 49 1.6 4.8 0.08 0.94 0.84 89 1016.5
20260501185026 12 49 3.2 4.8 0.08 0.94 0.84 89 1016.7
20260501184526 12 14 4.8 14.5 0.08 0.94 0.84 89 1016.8
20260501184026 12 51 1.6 3.2 0.05 0.91 0.81 89 1017.0
20260501183026 12 51 0.0 3.2 0.08 0.91 0.81 89 1016.9
20260501182526 12 51 0.0 4.8 0.10 0.91 0.81 89 1016.8
20260501182027 12 50 1.6 3.2 0.10 0.91 0.81 89 1017.0
20260501181526 12 47 1.6 4.8 0.08 0.89 0.79 89 1017.2
20260501181026 12 41 1.6 4.8 0.08 0.89 0.79 89 1017.3
20260501180526 12 31 3.2 11.3 0.08 0.89 0.79 89 1017.4
20260501180026 12 51 3.2 4.8 0.08 0.86 0.76 89 1017.6
20260501175526 12 27 3.2 4.8 0.08 0.86 0.76 89 1017.9
20260501174526 12 50 1.6 4.8 0.10 0.86 0.76 89 1017.9
20260501174026 12 44 0.0 3.2 0.10 0.86 0.76 89 1017.8
20260501173527 12 44 1.6 3.2 0.08 0.84 0.74 89 1017.9
20260501173026 12 44 1.6 4.8 0.10 0.84 0.74 89 1018.0
20260501172526 12 28 1.6 3.2 0.08 0.81 0.71 89 1018.1
20260501172026 12 18 1.6 3.2 0.10 0.81 0.71 89 1018.3
20260501171026 12 18 0.0 4.8 0.10 0.81 0.71 89 1018.5
20260501170026 12 17 1.6 4.8 0.10 0.79 0.69 89 1018.4